This is the latest recevied weather packets stored in our database for station/object W5ITZ. If no packets are shown the sender has not sent any weather packets the latest 10 day(s).
| Time | Temp. | Humidity | Pressure | Rain* | Wind** | Luminosity | Snow |
|---|---|---|---|---|---|---|---|
| 1788140030 | 28.89° C | 78% | 1013.6 hPa | 0 mm | - | 0 W/m² | - |
| 1788139724 | 28.89° C | 78% | 1013.5 hPa | 0 mm | - | 0 W/m² | - |
| 1788139420 | 29.44° C | 77% | 1013.4 hPa | 0 mm | - | 0 W/m² | - |
| 1788139120 | 29.44° C | 77% | 1013.4 hPa | 0 mm | - | 0 W/m² | - |
| 1788138815 | 29.44° C | 76% | 1013.6 hPa | 0 mm | - | 0 W/m² | - |
| 1788138511 | 29.44° C | 76% | 1013.8 hPa | 0 mm | - | 0 W/m² | - |
| 1788138210 | 30° C | 75% | 1013.5 hPa | 0 mm | - | 0 W/m² | - |
| 1788137906 | 30° C | 74% | 1014 hPa | 0 mm | - | 1 W/m² | - |
| 1788137602 | 30° C | 74% | 1013.6 hPa | 0 mm | - | 3 W/m² | - |
| 1788137296 | 30° C | 73% | 1013.6 hPa | 0 mm | - | 5 W/m² | - |
| 1788136992 | 30.56° C | 72% | 1013.8 hPa | 0 mm | - | 9 W/m² | - |
| 1788136688 | 30.56° C | 71% | 1013.5 hPa | 0 mm | - | 12 W/m² | - |
| 1788136384 | 30.56° C | 70% | 1013.5 hPa | 0 mm | - | 17 W/m² | - |
| 1788136083 | 30.56° C | 69% | 1013.6 hPa | 0 mm | - | 23 W/m² | - |
| 1788135777 | 31.11° C | 69% | 1013.4 hPa | 0 mm | - | 29 W/m² | - |
| 1788135473 | 31.11° C | 68% | 1013.4 hPa | 0 mm | - | 34 W/m² | - |
| 1788135168 | 31.11° C | 67% | 1013.3 hPa | 0 mm | - | 41 W/m² | - |
| 1788134865 | 31.67° C | 66% | 1013.4 hPa | 0 mm | - | 48 W/m² | - |
| 1788134565 | 31.67° C | 68% | 1013.5 hPa | 0 mm | - | 55 W/m² | - |
| 1788134264 | 31.67° C | 67% | 1013.3 hPa | 0 mm | - | 64 W/m² | - |
| 1788133959 | 31.67° C | 65% | 1013.1 hPa | 0 mm | - | 74 W/m² | - |
| 1788133653 | 31.67° C | 63% | 1013.3 hPa | 0 mm | - | 84 W/m² | - |
| 1788133350 | 31.67° C | 63% | 1013.2 hPa | 0 mm | - | 95 W/m² | - |
| 1788133045 | 32.22° C | 62% | 1013.1 hPa | 0 mm | - | 107 W/m² | - |
| 1788132741 | 32.22° C | 61% | 1013.2 hPa | 0 mm | - | 120 W/m² | - |
* Rain latest hour (hover to see other rain measurements)
** Current wind speed in m/s (hover to see current wind gust speed)